Theta_e
336 336 336 336 336 336 336 336 337 337 337 337 336 336 335 335 334 334 333 333 333 332 332 331 330 329 328 327 326 326 326 325 325 324 324 324 324 324 324 324 324 324
336 336 336 336 336 336 336 336 336 336 336 336 336 335 335 334 334 333 333 332 332 331 330 329 328 327 326 326 325 325 324 323 322 322 321 321 322 322 322 322 321 321
336 336 336 336 336 336 336 336 336 336 336 336 336 335 335 334 333 333 332 331 331 329 328 327 326 326 325 324 324 323 323 322 321 320 319 319 318 318 318 317 315 314
336 336 336 336 336 336 336 336 336 336 336 335 335 335 334 334 333 332 331 331 329 328 327 326 324 324 323 323 323 322 321 321 320 319 318 317 316 315 314 313 311 310
336 336 336 336 336 336 336 336 336 336 335 335 335 334 334 333 332 332 331 330 328 327 325 324 323 322 322 321 321 320 320 319 319 318 317 316 315 313 312 311 310 309
336 335 335 336 336 336 336 336 336 336 335 335 335 334 334 333 332 331 330 329 327 326 324 323 322 321 320 319 318 318 317 316 316 316 315 314 313 312 310 310 309 309
336 335 335 336 336 336 336 336 336 336 335 335 335 334 334 333 332 330 329 328 326 325 324 322 321 320 318 317 316 315 314 313 314 314 314 313 312 311 310 309 309 308
336 335 335 335 336 335 335 336 336 335 335 335 334 334 334 333 331 329 328 327 326 324 323 321 320 319 317 316 314 313 311 311 312 313 312 311 311 310 309 308 308 308
336 335 335 335 335 335 335 335 335 335 334 334 334 334 333 332 330 329 327 326 325 323 322 320 319 318 316 315 313 311 310 310 311 311 311 311 310 309 309 308 307 306
336 335 334 335 335 334 334 335 335 334 334 334 334 333 332 331 329 328 327 325 324 322 321 319 319 317 316 314 312 311 310 309 310 310 310 310 309 309 308 307 306 305
335 335 335 335 335 334 334 334 334 334 333 333 333 332 331 330 328 326 325 325 323 322 321 320 319 318 316 314 312 310 310 310 309 309 309 309 308 308 307 306 305 304
335 335 335 335 335 334 334 334 334 334 333 333 332 331 331 329 328 326 325 324 323 322 320 320 319 318 316 314 312 310 310 310 309 309 308 308 307 307 306 305 304 304
335 335 335 335 335 334 334 333 333 333 333 332 332 331 330 329 328 326 325 324 323 321 321 320 319 318 316 313 311 310 309 309 308 308 308 307 307 306 305 304 304 303
335 335 335 335 334 333 333 333 332 332 332 331 331 331 330 330 329 327 326 324 322 321 321 320 318 317 315 312 310 309 309 308 308 307 307 306 306 305 304 303 302 302
335 335 334 334 334 333 333 332 331 331 331 330 331 331 331 330 330 328 327 324 322 320 320 319 318 316 315 312 310 309 308 307 307 307 306 306 305 304 303 302 302 302
335 335 334 334 333 333 332 332 331 330 329 329 330 331 331 330 329 328 326 324 322 321 319 318 317 316 314 312 310 308 307 307 306 306 306 305 304 303 303 302 303 302
335 335 334 333 333 332 332 331 330 329 329 330 331 330 329 329 329 327 325 323 323 321 320 318 317 316 313 311 309 308 307 306 306 306 305 305 304 303 303 303 303 303
335 334 334 333 333 332 332 331 330 329 328 328 329 328 327 328 327 326 325 323 322 321 320 319 318 316 313 310 308 307 306 306 305 305 305 304 304 303 304 304 303 303
335 334 334 333 333 331 331 330 329 327 326 326 327 327 325 326 326 325 323 323 321 320 320 319 317 315 312 309 308 307 306 306 305 305 304 304 303 303 304 303 303 303
335 335 334 333 332 331 330 329 328 327 326 326 326 325 323 324 325 323 321 322 321 320 319 318 317 315 311 309 307 307 306 306 305 304 304 303 303 303 303 303 303 302
335 335 334 333 332 331 330 328 327 326 325 325 325 324 323 324 324 322 321 322 321 320 319 317 316 315 311 308 307 307 306 305 305 305 304 304 303 303 303 303 302 301
335 334 333 332 331 330 329 327 326 326 326 325 323 322 321 322 322 321 321 322 321 319 318 317 316 314 310 308 307 307 306 305 305 305 304 304 303 303 303 303 301 300
335 334 333 332 330 329 328 326 325 325 326 325 322 319 319 319 319 318 319 322 322 320 318 317 315 313 310 308 307 307 306 306 305 305 304 304 303 303 303 303 301 301
335 334 333 331 330 329 327 326 326 325 325 324 321 319 319 318 318 317 317 320 321 321 319 318 315 313 309 307 307 307 306 306 305 305 304 304 304 303 303 302 301 302
335 334 333 331 330 329 327 327 327 325 323 322 321 320 318 318 318 318 318 320 321 320 319 317 315 312 309 307 307 307 306 306 305 305 304 304 303 303 303 302 302 302
334 333 332 331 330 329 328 328 326 323 322 321 319 319 318 317 317 317 318 320 319 318 317 316 315 312 309 307 307 307 306 306 305 304 304 304 303 303 303 303 303 303
Wind_Speed
35 35 35 34 34 34 34 33 32 31 30 29 29 28 27 25 24 23 22 21 20 20 19 18 17 17 16 16 16 16 16 17 17 18 18 18 18 18 18 19 19 18
35 35 35 34 34 33 33 33 32 32 31 30 29 28 27 26 24 23 23 22 21 20 19 18 17 17 17 16 16 16 17 16 17 17 17 17 17 16 16 16 16 17
36 36 36 35 35 34 33 33 32 32 31 30 29 28 27 26 25 24 23 22 22 20 19 18 17 17 16 16 16 16 16 16 16 16 15 15 15 15 15 15 14 14
37 37 37 36 35 34 33 33 33 32 31 31 30 29 28 27 26 25 24 23 22 21 19 18 17 17 16 16 16 16 16 15 15 15 15 15 15 15 15 14 14 13
37 37 36 35 35 34 34 34 34 33 32 31 30 30 29 28 27 27 26 25 23 21 20 18 17 17 16 16 16 16 16 16 15 16 16 15 15 15 15 15 15 14
36 36 36 35 35 35 35 35 34 33 33 32 31 30 29 29 28 27 27 25 24 22 20 19 18 17 17 16 17 17 16 16 16 16 16 16 16 16 16 15 15 14
36 36 35 35 35 35 35 35 34 34 33 32 31 30 30 29 28 28 27 25 24 23 21 20 19 18 17 17 17 17 16 15 16 17 17 17 17 17 17 16 15 15
35 35 35 35 35 35 35 35 35 34 33 32 31 30 29 29 28 27 26 25 24 23 22 20 19 18 17 17 17 17 16 16 16 17 17 18 18 18 17 16 15 15
35 34 35 35 35 35 35 35 35 34 33 32 30 30 29 28 28 27 27 26 24 23 22 21 19 18 17 17 17 17 16 16 16 17 18 18 19 18 18 17 16 15
35 35 35 36 35 35 35 35 35 34 33 31 30 29 29 28 27 27 26 26 25 24 23 21 20 18 18 18 17 17 16 16 16 17 18 18 19 18 18 18 17 16
36 36 36 36 36 35 35 36 35 34 32 31 30 30 28 27 27 27 27 26 25 24 23 21 20 18 18 18 18 17 16 16 16 17 18 18 18 18 18 18 17 16
36 37 38 38 37 35 35 36 35 34 32 31 31 30 28 27 27 28 27 27 26 24 23 21 20 18 18 18 19 18 17 16 16 17 18 18 17 17 17 17 16 16
37 37 38 38 37 36 36 36 35 34 33 32 31 30 29 28 27 28 28 27 26 24 23 21 20 19 19 19 19 19 18 17 17 17 18 18 17 17 16 16 16 16
36 36 37 37 37 36 36 36 35 34 33 33 32 31 30 28 26 27 28 27 26 25 23 22 21 20 20 20 20 19 19 18 18 18 18 18 17 16 16 15 15 16
35 35 35 36 36 36 36 36 35 34 34 34 33 32 31 28 26 27 28 28 27 25 24 23 22 21 20 20 21 21 20 19 19 19 19 19 18 17 16 16 16 16
34 34 34 35 36 37 36 35 34 34 34 34 33 32 31 29 28 28 28 29 28 27 26 24 23 21 20 21 21 21 20 20 20 20 19 19 19 18 18 17 17 16
34 34 35 36 36 36 36 35 35 34 35 34 34 33 31 30 30 30 30 30 29 28 27 26 24 22 21 21 21 21 20 20 20 20 20 20 19 19 20 19 18 17
34 35 35 36 36 35 35 36 35 35 35 35 35 34 33 32 32 31 31 31 30 29 28 26 24 22 21 21 21 21 20 20 20 21 21 20 20 20 21 20 20 20
35 35 35 35 35 35 35 35 36 35 35 35 36 35 35 34 33 32 31 31 31 30 28 26 23 21 21 21 21 21 20 20 21 21 21 21 22 22 22 22 22 23
34 35 35 34 35 34 34 35 35 35 36 36 36 35 35 34 34 33 32 31 31 30 28 26 23 21 21 22 22 22 21 21 21 21 22 22 23 23 23 23 22 23
34 34 34 34 34 34 35 35 35 36 36 35 36 36 37 36 34 33 33 31 31 30 29 26 24 22 22 23 23 23 22 22 22 23 23 23 23 23 23 22 21 21
34 34 33 33 34 34 34 34 35 36 36 36 35 35 35 34 33 33 33 32 31 31 29 27 24 23 23 24 24 24 23 24 24 24 24 24 23 23 23 22 20 21
34 34 33 33 33 34 34 33 34 36 37 37 34 32 33 33 32 33 33 32 33 32 30 28 25 24 24 25 25 25 25 26 26 25 26 25 25 25 24 23 21 21
35 35 35 34 34 35 34 34 35 36 36 36 35 33 33 33 32 32 32 32 33 33 31 28 26 25 25 25 26 26 27 27 27 27 27 26 26 26 25 24 22 20
35 35 36 36 36 35 34 36 37 36 34 35 35 33 33 33 34 35 35 34 33 32 30 29 27 26 25 26 26 27 27 28 28 28 28 28 28 28 26 25 23 21
35 36 36 37 37 36 36 37 37 33 31 32 33 33 34 35 37 38 37 34 33 32 31 30 28 26 26 26 26 27 28 29 29 29 30 29 29 28 27 26 24 22
Wind_Direction
202 200 200 199 199 202 203 203 206 209 211 213 215 215 214 213 211 212 215 218 221 226 231 234 237 239 239 237 236 234 234 234 234 234 233 232 231 232 233 233 233 233
201 201 201 200 199 203 205 206 209 211 213 215 217 217 215 213 212 214 217 221 224 227 231 235 237 237 237 235 234 234 233 233 233 232 232 232 232 233 234 234 233 234
201 200 201 201 200 202 205 207 211 213 214 215 216 216 215 214 214 217 220 223 226 228 230 234 235 234 234 234 234 236 236 236 235 233 231 230 231 232 231 230 229 230
201 201 202 201 201 204 205 206 209 210 212 214 215 217 216 216 216 218 221 223 226 228 230 231 231 231 231 232 233 235 236 236 235 233 230 227 226 226 225 222 219 218
200 201 202 201 202 204 205 206 208 210 211 214 216 217 217 218 218 218 219 222 224 226 228 228 227 227 228 230 232 233 234 234 233 230 227 223 220 218 216 213 210 208
199 201 200 200 201 204 204 206 209 211 212 214 216 217 218 220 220 218 219 220 221 223 224 224 224 224 226 228 230 232 233 233 231 226 222 219 215 210 208 208 207 206
198 200 199 199 201 203 205 207 210 212 213 214 216 217 219 220 219 219 219 219 220 222 223 223 223 224 225 227 228 229 229 229 226 221 216 213 211 207 204 205 207 206
197 198 198 198 200 202 204 207 210 212 214 214 215 217 219 219 219 218 218 219 220 222 223 222 223 225 226 227 227 226 224 221 219 215 211 209 207 207 204 203 206 207
195 196 195 196 199 201 203 206 210 212 213 214 215 216 217 217 219 218 218 218 220 222 222 222 223 225 227 228 227 226 221 217 215 212 211 210 208 206 204 203 204 203
193 194 193 195 198 201 202 206 210 211 212 213 214 215 214 215 217 219 218 218 218 220 221 221 224 225 227 228 228 226 222 217 214 212 212 213 211 208 206 204 203 200
191 192 192 195 198 200 201 205 208 209 210 211 212 212 211 213 215 216 217 218 219 220 221 222 226 228 229 229 228 225 223 220 217 214 213 213 212 211 208 206 205 201
190 191 192 195 198 199 201 203 206 207 207 207 209 209 209 211 214 215 216 218 220 221 223 225 228 231 233 232 228 224 221 220 218 216 214 212 212 212 210 208 206 203
190 191 192 194 197 198 200 202 203 205 205 205 206 207 207 210 214 216 217 218 221 222 223 226 229 231 232 231 228 224 219 218 216 215 213 211 210 210 209 209 207 204
190 191 191 193 195 196 198 200 201 201 202 203 204 205 208 210 214 216 217 218 220 222 223 226 228 230 230 228 225 222 219 217 215 214 211 208 208 208 207 207 206 202
188 189 191 192 193 194 195 197 198 198 199 201 202 205 208 210 212 215 216 216 217 219 221 224 226 229 230 228 223 220 218 217 214 213 211 207 205 203 202 202 200 197
186 188 189 190 191 192 193 194 195 196 197 199 202 205 207 208 209 212 215 215 215 216 218 221 225 229 230 228 225 221 217 215 213 211 210 208 204 199 196 195 194 193
185 186 188 189 190 191 192 193 194 195 197 199 201 203 205 207 208 210 213 214 215 216 218 220 224 228 228 226 223 221 218 214 212 211 209 208 206 200 194 189 188 190
184 185 187 188 190 190 191 192 193 194 195 196 198 200 202 204 206 209 211 212 213 215 217 220 224 227 226 223 220 220 219 217 214 212 210 208 207 203 198 193 191 194
184 185 186 188 189 190 190 190 191 192 193 194 196 198 200 201 204 208 209 210 211 214 216 220 223 225 223 220 219 218 218 218 217 214 213 211 209 206 202 199 197 198
184 185 186 187 188 189 189 190 190 192 194 196 196 197 198 199 202 205 206 208 212 214 216 219 220 222 221 217 217 217 217 218 218 216 216 215 212 209 205 203 202 203
184 185 185 186 188 188 189 190 191 192 194 196 197 197 199 200 202 204 205 207 211 213 215 218 219 221 219 215 214 215 216 218 217 216 216 215 212 210 208 207 208 210
185 184 184 185 186 187 189 191 191 192 194 197 198 198 198 199 201 203 204 206 209 212 214 216 218 219 216 213 213 214 214 215 215 215 215 213 213 212 211 211 212 214
184 182 183 184 185 187 189 190 192 194 195 196 196 195 195 197 199 201 203 206 207 210 213 214 216 217 214 212 212 212 212 212 212 213 213 213 214 214 213 213 216 219
184 183 184 184 186 189 189 189 194 197 196 195 195 195 195 197 198 200 203 206 208 211 213 214 215 215 212 212 213 213 212 211 211 211 211 213 215 214 214 215 217 220
185 185 185 186 189 191 189 192 197 198 195 193 194 195 195 197 200 202 203 205 209 213 213 214 215 214 211 211 212 213 212 212 212 210 210 213 214 213 213 215 217 219
185 186 188 189 191 190 191 196 198 195 191 190 192 194 196 199 202 202 201 201 206 210 211 213 215 213 211 210 211 213 214 214 213 212 212 212 212 213 213 214 215 216